Current weather by "City, St" or "zip code"  
 
Advertise Here

Current Conditions: Cleveland, TX

Overcast


69.0 F

Last Updated on Jan 25 2021, 3:35 am CST
Humidity: 95%
Wind Speed: S 13.8 G 21.9 mph
Barometer 29.75 in
Dewpoint: 68.0 F
Visibility: 7.00 mi
Precip: --
Heat Index: NA
Wind Chill: NA
Current conditions at:

Cleveland, TX (K6R3)

Lat: 30.3567 Lon: 95.0083

Local Radar Image active severe weather and emergency alerts image image weather storm and storm spotter reports image weather observation monitoring service image
Local
Radar
Active
Alerts
Storm Reports Obs
Monitoring

Sign-up For Email & Text Message Weather Alert Notification Services


Advertise Here

Observation History for Cleveland, TX


Time Wind
(mph)
Vis
(mi)
Weather Precip (in) Temperature (F) Relative
Humidity
Wind
Chill
(F)
Heat
Index
(F)
Pressure
Air Dwpt altimeter
(in)
sea level
(mb)
Rmks
3:35 am CST S 13.8 G 21.9 7.00 Overcast -- 69.0 68.0 95% NA NA 29.75 M
2:55 am CST S 16.1 G 20.7 7.00 Overcast -- 70.0 68.2 95% NA NA 29.77 M
1:55 am CST S 15.0 G 21.9 5.00 Fog/Mist -- 70.0 68.5 96% NA NA 29.78 M
12:55 am CST S 13.8 G 20.7 5.00 Fog/Mist -- 69.0 68.9 99% NA NA 29.78 M
11:55 pm CST S 12.7 G 21.9 5.00 Light Rain -- 70.0 69.1 98% NA NA 29.80 M
11:35 pm CST S 16.1 G 23.0 7.00 Overcast -- 70.0 69.3 98% NA NA 29.81 M
10:55 pm CST S 9.2 G 19.6 5.00 Light Rain -- 70.0 69.1 97% NA NA 29.82 M
9:55 pm CST S 6.9 7.00 Overcast -- 69.0 68.0 97% NA NA 29.81 M
8:55 pm CST S 6.9 5.00 Fog/Mist -- 69.0 67.1 94% NA NA 29.83 M
8:35 pm CST S 6.9 7.00 Overcast -- 69.0 66.7 94% NA NA 29.83 M
7:55 pm CST S 5.8 7.00 Overcast -- 69.0 66.6 93% NA NA 29.85 M
6:55 pm CST S 8.1 G 16.1 7.00 Overcast -- 69.0 66.2 92% NA NA 29.86 M
5:55 pm CST S 9.2 7.00 Overcast -- 69.0 66.4 90% NA NA 29.88 M
5:35 pm CST S 6.9 7.00 Mostly Cloudy -- 70.0 66.6 90% NA NA 29.88 M
4:55 pm CST S 9.2 7.00 Overcast -- 71.0 67.1 88% NA NA 29.89 M
4:35 pm CST S 8.1 G 17.3 7.00 Mostly Cloudy -- 72.0 67.1 86% NA NA 29.89 M
3:55 pm CST S 10.4 G 16.1 7.00 Overcast -- 73.0 68.0 85% NA NA 29.89 M
3:35 pm CST S 10.4 G 17.3 7.00 Mostly Cloudy -- 74.0 68.9 84% NA NA 29.89 M
2:55 pm CST S 4.6 7.00 Overcast -- 73.0 70.3 90% NA NA 29.89 M
1:55 pm CST S 6.9 7.00 Overcast -- 70.0 69.8 100% NA NA 29.90 M
1:35 pm CST S 5.8 7.00 Overcast -- 69.0 69.4 100% NA NA 29.91 M
12:55 pm CST S 8.1 4.00 Fog/Mist -- 69.0 69.1 100% NA NA 29.93 M
12:35 pm CST S 8.1 3.00 Fog/Mist -- 69.0 68.9 100% NA NA 29.95 M
11:55 am CST N 0.0 1.50 Fog/Mist -- 67.0 67.5 100% NA NA 29.98 M

Regional Weather Observation


Conroe, Montgomery County Airport, TX (KCXO)

Overcast
72.0 F

Huntsville, Huntsville Municipal Airport, TX (KUTS)

Overcast
72.0 F

Houston Intercontinental Airport, TX (KIAH)

Overcast
72.0 F

Houston, Hooks Memorial Airport, TX (KDWH)

Overcast
71.0 F

Beaumont Municipal Airport, TX (KBMT)

Overcast
71.0 F

Crockett, Houston County Airport, TX (KDKR)

NULL
NULL F